Miscellaneous Local Product
Issued by NWS Hastings, NE

Home | Current Version | Previous Version | Text Only | Print | Product List | Glossary On
Versions: 1 2 3 4 5 6 7 8 9 10 11 12 13 14 15 16 17 18 19 20 21 22 23 24 25 26 27 28 29 30 31 32 33 34 35 36 37 38 39 40 41 42 43 44 45 46 47 48 49 50
000
AXUS43 KGID 241202
MISGRI

GID CWA HOURLY WEATHER ROUNDUP
NATIONAL WEATHER SERVICE HASTINGS NE
700 AM CDT SUN MAY 24 2015

NOTE: "FAIR" INDICATES FEW OR NO CLOUDS BELOW 12,000 FEET WITH NO
SIGNIFICANT WEATHER AND/OR OBSTRUCTIONS TO VISIBILITY.

...SOUTH CENTRAL NEBRASKA...

CITY           SKY/WX    TMP DP  RH WIND       PRES   REMARKS
GRAND ISLAND   CLOUDY    59  58  96 CALM      29.91R FOG
HASTINGS       FOG       59  58  96 VRB3      29.90R VSB 1/2
KEARNEY        CLOUDY    57  55  94 S3        29.91S
ORD            CLOUDY    57  57 100 SE3       29.90R FOG
YORK           FOG       59  59 100 E6        29.89R VSB 3/4
AURORA         CLOUDY    59  59 100 SE3       29.90R FOG
LEXINGTON      CLOUDY    58  57  97 CALM      29.90S FOG
HOLDREGE       CLOUDY    57  56  96 CALM      29.91R
HEBRON         CLOUDY    60  58  94 CALM      29.89R FOG

...NEBRASKA PANHANDLE...

CITY           SKY/WX    TMP DP  RH WIND       PRES   REMARKS
CHADRON        LGT RAIN  52  51  97 CALM      29.92R FOG
ALLIANCE       CLOUDY    50  49  96 N3        29.90R
SCOTTSBLUFF    CLOUDY    51  51 100 E5        29.90R FOG
SIDNEY         FOG       49  49 100 NW5       29.90S VSB 1/4

...WESTERN AND NORTH CENTRAL NEBRASKA...

CITY           SKY/WX    TMP DP  RH WIND       PRES   REMARKS
VALENTINE      LGT RAIN  54  54 100 E8        29.93S FOG
AINSWORTH      LGT RAIN  55  55 100 E9        29.93R VSB 1/4
ONEILL         FOG       58  57  99 E7        29.93S VSB 1/4
BROKEN BOW     LGT RAIN  58  57  97 SE5       29.92R FOG
IMPERIAL       CLOUDY    54  53  97 S6        29.88R
NORTH PLATTE   CLOUDY    56  54  93 NE3       29.91R
MCCOOK         CLOUDY    56  55  97 SE9       29.88S

...EASTERN NEBRASKA...

CITY           SKY/WX    TMP DP  RH WIND       PRES   REMARKS
NORFOLK        RAIN     N/A N/A N/A E8        29.89S
SO SIOUX CITY  CLOUDY    61  57  87 E9        29.90F
TEKAMAH        LGT RAIN  60  59  96 E9        29.89F FOG
COLUMBUS       CLOUDY    57  54  88 E8        29.92R
ALBION         DRIZZLE   58  56  94 CALM      29.91R
OMAHA EPPLEY   CLOUDY    61  59  93 E10       29.88F FOG
MILLARD        CLOUDY    61  59  94 E5        29.87F FOG
LINCOLN        CLOUDY    60  59  96 CALM      29.88R FOG
NEBRASKA CITY  DRIZZLE   60  60 100 E7        29.87R
BEATRICE       CLOUDY    60  59  98 CALM      29.86R FOG
FALLS CITY     LGT RAIN  62  60  93 SE9       29.87R FOG

...NORTHERN KANSAS...

CITY           SKY/WX    TMP DP  RH WIND       PRES   REMARKS
GOODLAND       CLOUDY    52  51  97 S8        29.89S
HILL CITY      CLOUDY    57  56  96 CALM      29.90R
NORTON         CLOUDY    55  54  94 CALM      29.89S FOG
PHILLIPSBURG   CLOUDY    61  61 100 NE3       29.89F FOG
SMITH CENTER   FOG       55  55 100 CALM      29.90F VSB 1/4
HAYS           CLOUDY    55  50  82 SE3       29.88F VSB<1/4
RUSSELL        CLOUDY    57  57 100 E7        29.88S FOG
CONCORDIA      CLOUDY    60  59  96 W7        29.90R FOG
SALINA         FOG       59  58  96 SE6       29.91R VSB 1/4
TOPEKA         CLOUDY    64  61  90 SW6       29.89R



USA.gov is the U.S. government's official web portal to all federal, state and local government web resources and services.